Temp
-3 -3 -3 -3 -4 -4 -5 -7 -9 -8 -5 -4 -6 -8 -9 -11 -11 -11 -11 -11 -11 -10 -9 -9 -8 -7 -6 -5 -5 -4 -4 -3 -3 -3 -3 -4 -3 -2
-4 -4 -4 -4 -4 -5 -7 -8 -10 -12 -12 -8 -8 -9 -9 -11 -12 -13 -13 -12 -11 -11 -11 -11 -10 -8 -7 -7 -6 -5 -5 -4 -3 -3 -3 -3 -4 -3
-4 -4 -5 -5 -6 -7 -8 -9 -11 -13 -15 -11 -12 -11 -11 -13 -13 -14 -14 -14 -13 -12 -13 -12 -12 -11 -10 -8 -7 -6 -5 -5 -4 -3 -2 -2 -3 -2
-5 -5 -6 -7 -7 -8 -10 -10 -12 -13 -15 -15 -13 -14 -14 -14 -14 -15 -15 -14 -14 -14 -13 -13 -14 -15 -12 -10 -8 -7 -6 -5 -4 -4 -3 -2 -2 -2
-6 -6 -7 -8 -8 -10 -11 -12 -13 -14 -15 -16 -15 -15 -15 -15 -15 -15 -15 -14 -14 -14 -14 -14 -14 -13 -13 -12 -10 -9 -8 -6 -5 -4 -4 -3 -2 -2
-7 -7 -8 -9 -10 -12 -12 -13 -14 -15 -16 -16 -16 -16 -16 -15 -16 -15 -14 -14 -14 -14 -14 -14 -13 -13 -14 -13 -13 -12 -11 -8 -6 -5 -4 -3 -3 -2
-7 -8 -9 -10 -12 -13 -15 -15 -16 -16 -16 -16 -17 -17 -16 -16 -16 -16 -16 -14 -13 -15 -14 -13 -14 -14 -14 -14 -13 -13 -12 -11 -8 -6 -4 -4 -3 -3
-8 -9 -10 -12 -13 -13 -14 -15 -17 -18 -18 -17 -17 -17 -17 -16 -16 -16 -16 -15 -14 -15 -15 -14 -15 -14 -14 -14 -13 -12 -12 -12 -10 -8 -6 -5 -4 -3
-10 -11 -12 -12 -14 -14 -14 -15 -17 -18 -17 -18 -18 -18 -18 -16 -17 -16 -16 -16 -15 -14 -15 -14 -15 -14 -14 -14 -13 -12 -12 -11 -11 -9 -8 -6 -5 -3
-11 -12 -14 -14 -14 -15 -17 -17 -18 -17 -18 -18 -18 -17 -17 -16 -17 -16 -16 -15 -15 -14 -15 -15 -15 -14 -14 -13 -13 -13 -12 -11 -11 -10 -8 -7 -5 -4
-12 -14 -14 -15 -15 -17 -18 -18 -17 -16 -17 -17 -17 -17 -16 -16 -17 -16 -16 -16 -14 -14 -14 -15 -14 -14 -14 -13 -13 -12 -11 -11 -10 -10 -8 -7 -5 -3
-12 -14 -15 -16 -17 -18 -19 -18 -17 -17 -17 -16 -16 -16 -16 -16 -16 -16 -16 -15 -15 -14 -14 -14 -14 -14 -13 -12 -12 -12 -11 -10 -9 -9 -8 -7 -7 -6
-14 -14 -15 -16 -18 -18 -19 -18 -18 -18 -17 -17 -16 -16 -16 -16 -15 -15 -15 -15 -15 -14 -14 -14 -14 -14 -14 -11 -11 -11 -9 -9 -8 -8 -7 -6 -6 -5
-15 -16 -16 -17 -18 -17 -18 -18 -18 -17 -17 -17 -16 -16 -16 -15 -15 -15 -16 -16 -16 -15 -15 -15 -14 -14 -13 -12 -11 -10 -9 -8 -8 -7 -7 -6 -6 -5
-16 -17 -17 -18 -18 -17 -18 -18 -18 -18 -17 -17 -16 -16 -16 -16 -16 -16 -16 -16 -16 -16 -16 -15 -15 -14 -13 -12 -10 -10 -9 -8 -8 -8 -7 -6 -5 -6
-17 -17 -18 -18 -18 -18 -17 -17 -17 -17 -18 -17 -17 -16 -17 -17 -16 -17 -17 -16 -16 -15 -15 -15 -15 -14 -13 -12 -10 -10 -9 -9 -9 -8 -8 -6 -6 -5
-18 -17 -17 -18 -17 -17 -17 -17 -17 -17 -16 -16 -17 -16 -16 -16 -17 -17 -16 -16 -16 -15 -15 -14 -14 -14 -13 -12 -11 -10 -10 -9 -9 -9 -9 -8 -7 -6
-18 -18 -18 -18 -18 -17 -17 -16 -16 -16 -17 -17 -16 -16 -16 -16 -16 -16 -16 -16 -15 -15 -15 -14 -14 -13 -13 -12 -12 -11 -11 -10 -10 -9 -9 -8 -8 -7
-18 -18 -18 -18 -17 -17 -17 -17 -16 -17 -16 -16 -16 -16 -16 -16 -16 -15 -16 -15 -15 -14 -14 -14 -14 -14 -13 -13 -12 -12 -11 -11 -11 -10 -10 -9 -8 -8
-18 -18 -18 -18 -17 -17 -17 -17 -16 -16 -16 -16 -16 -15 -14 -14 -14 -14 -14 -14 -14 -14 -14 -14 -14 -14 -14 -13 -12 -12 -12 -12 -11 -11 -10 -10 -10 -10
-18 -18 -18 -17 -17 -17 -17 -16 -16 -15 -15 -15 -15 -15 -15 -14 -14 -14 -14 -14 -14 -14 -14 -14 -14 -14 -13 -13 -13 -13 -12 -12 -12 -11 -11 -11 -11 -11
-18 -17 -17 -17 -17 -17 -16 -16 -15 -15 -15 -15 -14 -14 -14 -14 -14 -14 -13 -13 -13 -13 -13 -13 -14 -13 -13 -13 -13 -13 -13 -13 -13 -13 -12 -12 -12 -12
-18 -17 -17 -17 -17 -16 -15 -15 -15 -15 -14 -15 -14 -14 -14 -14 -14 -14 -14 -13 -13 -13 -13 -13 -13 -13 -13 -13 -14 -13 -13 -13 -13 -13 -13 -13 -13 -13
Height
2972 2965 2958 2951 2943 2935 2925 2915 2902 2887 2880 2880 2873 2873 2864 2854 2851 2846 2841 2838 2834 2830 2829 2826 2824 2823 2824 2824 2824 2825 2827 2829 2831 2832 2835 2838 2842 2845
2960 2953 2946 2938 2929 2919 2910 2900 2891 2880 2865 2867 2860 2856 2849 2840 2834 2829 2825 2821 2817 2814 2810 2807 2804 2804 2804 2804 2805 2808 2810 2812 2815 2820 2824 2827 2828 2838
2948 2940 2932 2923 2913 2906 2896 2887 2877 2869 2857 2850 2844 2839 2833 2826 2821 2816 2811 2806 2802 2799 2795 2791 2787 2785 2785 2785 2788 2791 2793 2795 2798 2801 2809 2816 2818 2821
2935 2926 2917 2910 2901 2891 2882 2874 2865 2858 2848 2837 2832 2827 2822 2816 2809 2803 2798 2794 2789 2785 2781 2776 2772 2769 2769 2769 2769 2772 2775 2778 2781 2786 2790 2797 2802 2805
2923 2914 2905 2896 2888 2879 2870 2861 2852 2845 2838 2830 2820 2817 2811 2806 2798 2792 2786 2780 2775 2771 2766 2762 2759 2756 2753 2754 2753 2755 2758 2761 2765 2770 2776 2781 2788 2793
2912 2903 2894 2884 2874 2866 2858 2850 2841 2834 2828 2820 2813 2806 2801 2796 2789 2780 2770 2768 2760 2756 2752 2750 2746 2742 2742 2741 2740 2739 2741 2744 2748 2754 2762 2769 2774 2781
2901 2891 2882 2872 2864 2856 2847 2840 2832 2825 2817 2810 2802 2796 2790 2784 2778 2769 2760 2750 2746 2744 2738 2735 2730 2728 2728 2727 2727 2726 2727 2727 2731 2737 2746 2755 2761 2766
2888 2879 2870 2862 2854 2847 2839 2832 2826 2817 2809 2801 2794 2785 2778 2772 2763 2756 2747 2741 2728 2735 2726 2720 2720 2716 2715 2714 2714 2713 2713 2713 2714 2720 2728 2738 2747 2755
2876 2867 2860 2853 2844 2836 2829 2820 2813 2809 2802 2793 2783 2774 2765 2761 2752 2744 2738 2731 2723 2721 2717 2709 2710 2706 2705 2702 2701 2699 2699 2699 2701 2705 2712 2721 2730 2740
2867 2857 2849 2842 2834 2825 2816 2808 2800 2794 2788 2780 2772 2763 2756 2750 2743 2735 2727 2720 2715 2713 2710 2699 2700 2695 2692 2689 2687 2685 2685 2686 2689 2691 2696 2703 2712 2723
2857 2848 2840 2832 2823 2815 2806 2795 2786 2780 2773 2767 2760 2753 2748 2742 2735 2727 2720 2712 2704 2702 2703 2693 2690 2683 2680 2676 2675 2675 2676 2677 2678 2681 2684 2690 2699 2709
2848 2839 2831 2823 2814 2806 2796 2785 2774 2768 2760 2754 2750 2745 2739 2733 2728 2722 2713 2704 2697 2688 2694 2685 2680 2676 2667 2668 2668 2668 2669 2670 2671 2674 2678 2685 2693 2701
2835 2828 2820 2812 2804 2795 2787 2777 2768 2760 2752 2747 2741 2735 2730 2724 2719 2713 2707 2699 2690 2682 2682 2676 2670 2668 2665 2660 2662 2664 2665 2667 2669 2672 2675 2680 2688 2695
2826 2818 2809 2802 2794 2785 2777 2769 2761 2754 2747 2740 2734 2728 2721 2716 2710 2703 2697 2691 2684 2676 2673 2670 2664 2663 2660 2658 2659 2661 2663 2665 2669 2673 2675 2680 2685 2691
2819 2809 2802 2793 2785 2778 2770 2762 2755 2748 2742 2734 2727 2722 2715 2707 2700 2693 2688 2682 2676 2671 2667 2664 2661 2659 2657 2656 2658 2660 2662 2666 2669 2673 2676 2681 2685 2689
2809 2801 2794 2786 2779 2772 2764 2758 2751 2745 2737 2729 2722 2716 2708 2702 2695 2688 2681 2676 2670 2667 2663 2660 2658 2656 2654 2655 2657 2660 2663 2667 2672 2675 2677 2680 2685 2690
2801 2794 2786 2779 2771 2765 2759 2753 2747 2741 2733 2726 2718 2712 2705 2699 2693 2686 2680 2674 2669 2664 2661 2658 2656 2654 2653 2653 2656 2659 2664 2669 2674 2678 2681 2683 2687 2691
2794 2787 2780 2773 2766 2760 2754 2749 2744 2737 2729 2723 2717 2710 2703 2697 2691 2686 2681 2676 2671 2667 2662 2658 2655 2653 2652 2654 2656 2661 2666 2672 2676 2681 2685 2689 2692 2698
2790 2782 2775 2769 2763 2758 2751 2746 2739 2733 2727 2722 2716 2710 2704 2698 2693 2688 2684 2679 2676 2671 2666 2663 2659 2656 2655 2657 2659 2664 2670 2675 2680 2685 2688 2692 2696 2700
2786 2778 2772 2766 2761 2755 2749 2743 2737 2732 2727 2721 2715 2709 2705 2700 2696 2692 2688 2684 2680 2676 2673 2669 2666 2664 2664 2664 2666 2670 2675 2681 2685 2688 2692 2695 2699 2703
2781 2776 2770 2764 2759 2753 2747 2741 2736 2731 2725 2720 2715 2711 2706 2702 2698 2694 2691 2687 2684 2682 2679 2677 2674 2672 2672 2673 2674 2676 2680 2685 2689 2692 2695 2698 2701 2705
2779 2774 2768 2763 2757 2751 2746 2741 2736 2731 2726 2721 2716 2712 2708 2703 2699 2696 2693 2690 2688 2686 2684 2683 2682 2680 2680 2681 2683 2684 2687 2689 2693 2696 2699 2703 2706 2708
2776 2771 2766 2762 2756 2750 2746 2742 2737 2732 2727 2722 2717 2712 2707 2703 2700 2697 2695 2693 2691 2689 2688 2687 2686 2686 2687 2688 2689 2690 2692 2694 2697 2700 2703 2706 2710 2714
Wind_Speed
48 51 54 56 59 60 61 61 60 68 73 69 67 61 60 59 56 53 52 53 54 58 60 62 61 59 57 58 59 62 65 67 66 62 57 64 52 55
51 54 56 59 61 61 60 59 57 56 63 65 64 60 58 57 52 49 50 50 51 50 50 52 57 58 57 56 57 56 58 60 61 60 54 50 51 47
54 57 60 61 61 60 59 57 57 54 53 61 56 54 53 51 52 48 47 45 48 47 47 47 48 51 53 55 54 53 53 54 55 56 53 52 47 45
57 59 60 60 60 59 57 55 54 52 48 48 51 48 48 48 49 49 50 49 51 50 49 49 46 43 46 49 49 51 52 52 54 52 50 46 46 45
58 59 60 59 59 56 54 53 51 47 43 43 48 47 45 44 47 50 53 53 53 50 47 45 45 44 40 40 41 43 47 51 53 52 49 47 45 43
58 59 59 57 55 53 52 50 46 45 45 43 46 43 44 45 48 54 60 55 52 48 49 46 44 42 37 37 34 35 38 47 51 52 51 49 47 45
58 58 56 55 52 50 46 45 45 45 46 44 45 46 47 49 56 57 57 54 51 48 46 41 39 36 36 35 36 37 36 41 46 50 51 48 47 47
57 56 54 51 49 47 46 46 42 41 41 46 46 52 55 59 55 52 50 50 53 41 41 38 32 31 31 34 34 35 37 41 46 45 47 49 49 47
54 53 52 49 48 48 49 47 43 37 40 48 52 56 61 53 48 48 47 46 46 41 39 38 32 32 32 33 34 33 36 37 42 44 44 44 46 47
52 51 49 50 49 48 46 47 47 47 50 50 52 57 51 43 41 43 44 45 43 40 37 43 38 39 40 38 34 30 28 31 35 39 45 48 48 47
50 49 49 50 49 45 44 50 55 52 46 43 44 42 38 37 37 39 40 42 44 42 36 43 42 43 42 30 22 19 23 26 32 37 42 46 49 47
50 50 49 48 46 43 48 52 51 46 45 41 37 36 36 35 35 36 39 42 45 49 40 44 43 42 40 25 13 13 18 20 25 34 33 36 41 41
52 52 51 49 44 48 45 44 42 40 39 37 38 37 37 36 36 37 38 41 46 49 43 42 42 37 31 26 9 7 12 8 6 12 20 24 28 32
51 51 51 48 49 46 42 39 35 34 35 37 38 39 40 40 40 38 35 35 35 38 35 30 31 28 25 20 10 4 10 8 8 4 9 17 20 25
48 48 47 47 44 41 36 32 31 33 35 37 40 42 41 38 34 32 30 28 26 24 23 20 20 20 19 16 7 5 11 13 11 3 11 14 17 16
48 47 44 41 38 35 31 28 29 32 35 40 41 37 33 31 28 27 27 24 21 16 15 14 14 15 14 12 7 11 17 16 10 6 4 12 19 17
46 43 41 38 35 31 28 29 30 32 38 35 31 30 28 26 25 21 20 20 19 18 15 12 9 10 10 7 9 15 20 19 14 5 1 9 17 21
41 40 38 35 32 30 30 31 31 36 29 27 26 26 26 24 22 19 18 18 17 15 14 11 9 5 2 6 11 18 21 18 15 11 11 16 22 24
37 36 34 31 29 29 31 33 35 25 24 23 23 22 21 20 19 19 18 17 13 12 15 16 16 12 10 10 13 16 21 18 15 12 10 10 15 19
34 33 31 28 28 29 32 33 23 21 20 20 21 20 20 19 16 15 14 16 18 19 19 18 17 15 14 17 20 22 19 15 12 12 13 13 14 21
33 30 27 26 28 31 31 22 20 20 21 22 24 25 23 21 20 19 19 18 17 16 17 18 20 21 16 17 22 23 22 16 13 11 12 14 18 25
32 27 25 26 30 29 22 19 18 20 22 24 23 22 20 19 18 16 15 13 11 10 9 8 9 14 18 16 16 18 19 18 14 14 14 14 18 25
28 25 25 28 28 22 19 18 18 21 22 23 22 21 19 16 14 13 12 12 11 9 7 6 7 8 10 12 14 15 16 17 18 19 20 20 22 25
Wind_Direction
314 314 314 315 314 314 312 310 308 307 307 307 306 305 301 299 298 298 292 290 286 283 282 279 276 270 266 264 262 258 257 257 258 260 264 272 269 264
314 315 315 316 316 316 314 310 307 303 301 307 306 305 302 301 304 301 297 295 292 292 292 287 282 275 269 265 261 260 258 257 257 257 256 259 264 266
315 315 317 319 318 316 313 311 307 304 300 306 307 308 306 305 302 300 299 298 297 297 297 296 292 285 274 265 263 262 258 254 254 254 254 252 254 261
316 318 319 319 318 316 313 310 306 306 305 304 307 304 303 303 300 300 297 297 298 298 296 292 292 290 287 271 261 259 258 255 252 252 251 253 254 254
318 318 319 319 317 314 312 311 309 309 306 302 301 301 301 300 299 295 295 299 299 297 294 292 290 289 285 277 266 259 257 255 253 252 250 252 252 252
318 318 319 318 317 316 312 311 311 308 306 302 300 301 296 297 294 295 299 300 298 298 295 294 290 282 277 271 269 265 261 254 253 250 247 247 249 250
319 319 320 319 317 315 313 311 310 308 306 305 299 297 297 298 298 301 301 301 301 302 302 296 291 281 266 269 271 264 259 254 254 251 246 243 244 248
320 321 321 318 316 314 313 311 307 307 308 306 305 296 299 304 307 304 301 303 304 307 303 298 300 287 279 275 273 269 264 260 253 250 250 248 242 242
322 321 319 319 316 315 312 310 308 304 296 295 295 296 302 307 306 306 305 303 302 306 304 299 300 296 292 291 286 278 270 262 258 253 244 241 239 241
323 320 319 319 317 315 312 309 304 301 298 296 291 296 304 309 305 305 304 304 303 304 305 302 303 301 300 296 287 273 256 251 253 248 241 232 229 230
322 319 320 319 318 315 311 307 308 309 309 306 304 307 308 308 308 307 306 305 304 304 307 301 301 302 303 302 292 268 254 251 242 235 242 229 224 223
321 320 320 318 316 314 312 313 315 317 314 316 314 313 313 312 310 306 305 304 302 301 304 299 299 303 307 309 292 256 239 249 239 243 247 243 234 231
321 321 321 319 319 316 319 317 317 317 318 318 318 318 318 316 313 309 304 300 297 296 302 301 301 304 302 307 307 249 223 219 206 240 242 233 229 226
319 321 320 322 322 322 321 321 322 322 321 320 320 321 320 318 314 311 306 301 297 297 301 297 295 298 299 301 308 208 182 175 148 178 227 220 222 224
321 320 321 323 323 323 325 328 327 324 323 322 324 323 323 322 321 318 315 313 310 306 300 296 293 293 292 294 285 203 172 175 157 173 193 204 202 223
323 322 325 324 326 327 328 330 329 328 327 325 325 327 329 330 332 332 331 331 326 318 312 303 295 293 288 284 246 194 181 174 173 154 105 163 183 183
323 326 327 330 331 332 334 334 333 330 328 328 331 334 336 338 342 341 342 345 342 339 332 320 310 295 284 259 209 186 180 179 169 208 271 169 174 183
327 328 332 333 334 336 337 338 335 332 335 338 341 342 346 348 350 358 4 2 359 6 10 6 350 328 182 162 169 172 171 160 153 159 168 175 159 156
330 334 334 335 337 339 341 337 337 342 344 347 349 356 359 5 11 20 18 20 20 41 53 43 44 55 97 124 142 159 164 151 157 171 180 150 172 160
336 336 338 340 341 343 339 339 346 349 351 350 351 357 6 11 22 30 34 40 45 47 49 57 64 62 89 118 127 129 133 144 156 168 167 167 171 164
338 342 342 343 344 340 342 350 351 352 347 347 355 359 0 0 0 6 10 15 21 22 30 45 66 73 96 113 122 125 131 138 149 162 166 170 176 171
341 345 346 346 342 343 352 355 356 348 354 0 3 358 357 356 3 5 7 10 17 28 40 52 63 74 97 116 127 138 142 147 147 150 145 150 165 173
343 347 348 345 345 352 359 358 356 1 3 357 353 351 353 1 4 8 13 20 26 34 45 60 90 110 123 120 118 127 141 151 157 157 148 137 134 138